Location: Carr Mill
(33.2054°N, 85.9439°W)
Time: 00:35:28
(UTC+00:00)

STARLINK-2732 - Pass Details

Date: 25 October 2021
Orbit: 545 x 549 km, 53.1° (Epoch: 30 November)

Event Time Altitude Azimuth Distance (km) Brightness Sun altitude
Exits shadow 11:08:18 - 223° (SW) 2,661 6.8 -10.7°
Reaches altitude 10° 11:10:26 10° 223° (SW) 1,806 5.9 -10.3°
Maximum altitude 11:14:33 89° 308° (NW) 550 3.6 -9.4°
Drops below altitude 10° 11:18:41 10° 44° (NE) 1,817 6.8 -8.6°
Sets 11:20:55 0° 44° (NE) 2,714 7.7 -8.1°
